Location: Nitra
(0.0000°N, 18.0833°E)
Time: 03:38:43
(UTC+01:00)

ATLAS 3B R/B - Pass Details

Date: 25 September 2022
Orbit: 970 x 1225 km, 63.8° (Epoch: 14 November)

Event Time Altitude Azimuth Distance (km) Brightness Sun altitude
Rises 20:19:41 0° 337° (NNW) 4,130 6.0 -25.1°
Reaches altitude 10° 20:22:27 10° 338° (NNW) 3,170 5.4 -25.8°
Maximum altitude 20:30:09 90° 261° (W) 1,216 2.8 -27.7°
Enters shadow 20:34:25 29° 158° (SSE) 2,023 3.9 -28.8°
